Location: Ocean City
(38.3360°N, 75.0850°W)
Time: 12:00:50
(UTC-05:00)

Explorer 11/Cluster Stage 4 - Pass Details

Date: 14 November 2019
Orbit: 467 x 1259 km, 28.8° (Epoch: 05 December)

Event Time Altitude Azimuth Distance (km) Brightness Sun altitude
Rises 22:35:52 0° 246° (WSW) 3,790 - -65.0°
Reaches altitude 10° 22:38:37 10° 238° (WSW) 2,940 - -65.4°
Maximum altitude 22:45:27 40° 172° (S) 1,698 - -66.2°
Drops below altitude 10° 22:52:57 10° 107° (ESE) 3,229 - -67.1°
Sets 22:56:07 0° 100° (E) 4,198 - -67.4°
